Regional Weather Roundup
Issued by NWS Cleveland, OH

Home | Current Version | Previous Version | Graphics & Text | Print | Product List | Glossary On
Versions: 1 2 3 4 5 6 7 8 9 10 11 12 13 14 15 16 17 18 19 20 21 22 23 24 25 26 27 28 29 30 31 32 33 34 35 36 37 38 39 40 41 42 43 44 45 46 47 48 49 50
951
ASUS41 KCLE 021802
RWRCLE
OHIO REGIONAL WEATHER ROUNDUP
NATIONAL WEATHER SERVICE CLEVELAND, OH
200 PM EDT MON MAY 02 2016

NOTE: "FAIR" INDICATES FEW OR NO CLOUDS BELOW 12,000 FEET WITH NO
SIGNIFICANT WEATHER AND/OR OBSTRUCTIONS TO VISIBILITY.

OHZ001>008-015>018-024>027-034-035-043-044-021900-
   NORTHWEST OHIO

CITY           SKY/WX    TMP DP  RH WIND       PRES   REMARKS
DEFIANCE       CLOUDY    52  46  80 NE6       30.02R
FINDLAY        CLOUDY    52  43  71 E6        30.01R
TOLEDO EXPRESS CLOUDY    52  46  80 NE9       30.01S
TOLEDO EXEC    CLOUDY    52  45  77 E9        30.02S
LIMA           CLOUDY    52  48  86 NE7       29.99S
$$

OHZ009>014-019>023-028>033-038-089-021900-
   NORTHEAST OHIO

CITY           SKY/WX    TMP DP  RH WIND       PRES   REMARKS
CLE-HOPKINS    CLOUDY    49  45  86 N12       30.01F
CLE-LAKEFRONT  CLOUDY    48  45  89 N12       30.00S
CUY CO. ARPT   NOT AVBL
LORAIN-ELYRIA  CLOUDY    49  43  80 NE12      30.00F
ASHTABULA      CLOUDY    46  43  89 NE8       30.00S
AKRON-CANTON   CLOUDY    53  46  77 N6        29.97S
WOOSTER        CLOUDY    50  46  86 N8        29.98F
MANSFIELD      CLOUDY    49  46  90 VRB3      29.99S
YOUNGSTOWN     CLOUDY    51  45  79 N9        29.96F
$$

OHZ042-051>053-060>062-070>072-077>081-021900-
  SOUTHWEST OHIO

CITY           SKY/WX    TMP DP  RH WIND       PRES   REMARKS
CINC-COVINGTON CLOUDY    64  53  67 W6        29.97R
CINC-LUNKEN    CLOUDY    65  54  67 SW12      29.95F
HAMILTON       CLOUDY    66  53  63 W6        29.96F
DAYTON         CLOUDY    57  51  80 NW6       29.98S
WRIGHT-PAT AFB NOT AVBL
DAYTON GENERAL CLOUDY    62  53  72 N7        29.95S
WILMINGTON     CLOUDY    63  56  78 N6        29.94S
$$

OHZ036-037-039>041-045>050-054>059-063>069-073>076-082>088-021900-
  CENTRAL AND SOUTHEAST OHIO

CITY           SKY/WX    TMP DP  RH WIND       PRES   REMARKS
COLUMBUS       CLOUDY    59  52  77 NW6       29.96R
OSU AIRPORT    CLOUDY    58  51  78 NW8       29.97R
BOLTON FIELD   NOT AVBL
RICKENBACK AFB NOT AVBL
NEWARK         PTSUNNY   65  53  65 W6        29.93F
MARION         CLOUDY    52  48  86 NE8       29.99R
LANCASTER      CLOUDY    64  54  69 W6        29.95S
ZANESVILLE     PTSUNNY   67  56  67 W10G17    29.93S
NEW PHILLY     PTSUNNY   59  51  75 NW9       29.96S
$$




USA.gov is the U.S. government's official web portal to all federal, state and local government web resources and services.